Flag for Portugal Weather past 2 weeks in Funchal, Madeira, Portugal

Now
59 °F

Passing clouds.


Feels Like: 57 °F
Forecast: 58 / 66 °F
Wind: 12 mph from Northeast

Location: Aeroporto Da Madeira

Current Time: Mar 5, 2015 at 8:26:12 AM

Latest Report: Mar 5, 2015 at 7:30 AM


Visibility: N/A

Pressure: 30.24 "Hg

Humidity: 72%

Dew point: 50 °F

Location of FunchalLocation

Historic Weather in Funchal — Graph

°F

Funchal temperature yesterday

Maximum temperature yesterday: 64 °F (at 2:00 PM)
Minimum temperature yesterday: 55 °F (at 6:30 AM)
Average temperature yesterday: 59 °F

Past Weeks' High & Low Weather Summary

 TemperatureHumidityPressure
High64 °F (Feb 20, 2:30 PM)88% (Feb 21, 12:30 PM)30.60 "Hg (Feb 21, 12:30 PM)
Low55 °F (Feb 18, 7:00 AM)37% (Feb 20, 2:30 PM)30.21 "Hg (Feb 21, 2:30 PM)
Average59 °F69%30.39 "Hg
* Reported Feb 18 7:00 AM — Mar 5 7:00 AM, Funchal, Weather by CustomWeather, © 2015

Note: Actual official high and low records may vary slightly from our data, if they occured in-between our weather recording intervals... More about our weather records

Advertising

Funchal weather history for previous 24 hours

 ConditionsComfort  
Time TempWeatherWind HumidityBarometerVisibility
7:00 AM
Thu, Mar 5
59 °FPassing clouds.8 mph72%30.24 "HgN/A
6:30 AM57 °FPassing clouds.9 mph77%30.24 "HgN/A
6:00 AM57 °FPassing clouds.9 mph77%30.24 "HgN/A
5:30 AM59 °FPassing clouds.9 mph72%30.21 "HgN/A
5:00 AM59 °FPassing clouds.9 mph77%30.21 "HgN/A
4:00 AM59 °FPassing clouds.8 mph77%30.24 "HgN/A
3:00 AM59 °FPassing clouds.12 mph77%30.24 "HgN/A
2:00 AM59 °FPassing clouds.9 mph72%30.27 "HgN/A
1:30 AM59 °FPassing clouds.7 mph77%30.27 "HgN/A
1:00 AM59 °FPassing clouds.8 mph72%30.27 "HgN/A
12:30 AM59 °FPassing clouds.8 mph72%30.27 "HgN/A
12:00 AM59 °FPassing clouds.8 mph77%30.30 "HgN/A
11:30 PM
Wed, Mar 4
59 °FPartly cloudy.9 mph77%30.30 "HgN/A
11:00 PM61 °FPartly cloudy.9 mph77%30.30 "HgN/A
10:30 PM61 °FPartly cloudy.7 mph77%30.30 "HgN/A
10:00 PM59 °FPartly cloudy.9 mph82%30.30 "HgN/A
9:00 PM59 °FPartly cloudy.6 mph82%30.30 "HgN/A
8:30 PM59 °FPartly cloudy.8 mph82%30.30 "HgN/A
8:00 PM59 °FScattered clouds.5 mph77%30.27 "HgN/A
7:30 PM61 °FScattered clouds.8 mph72%30.27 "HgN/A
7:00 PM61 °FScattered clouds.7 mph68%30.27 "HgN/A
6:30 PM61 °FScattered clouds.9 mph68%30.27 "HgN/A
6:00 PM61 °FScattered clouds.10 mph68%30.27 "HgN/A
5:30 PM61 °FScattered clouds.9 mph72%30.27 "HgN/A
5:00 PM61 °FScattered clouds.9 mph77%30.27 "HgN/A
4:30 PM63 °FScattered clouds.10 mph73%30.27 "HgN/A
4:00 PM63 °FScattered clouds.9 mph68%30.27 "HgN/A
3:30 PM64 °FScattered clouds.9 mph68%30.27 "HgN/A
3:00 PM63 °FScattered clouds.8 mph73%30.30 "HgN/A
2:30 PM63 °FScattered clouds.9 mph73%30.30 "HgN/A
2:00 PM64 °FScattered clouds.9 mph68%30.30 "HgN/A
1:30 PM63 °FScattered clouds.9 mph68%30.30 "HgN/A
1:00 PM63 °FScattered clouds.12 mph73%30.33 "HgN/A
12:30 PM61 °FBroken clouds.14 mph77%30.33 "HgN/A
12:00 PM61 °FBroken clouds.12 mph72%30.33 "HgN/A
11:30 AM61 °FBroken clouds.15 mph72%30.33 "HgN/A
11:00 AM59 °FBroken clouds.10 mph77%30.36 "HgN/A
10:30 AM59 °FBroken clouds.13 mph77%30.33 "HgN/A
10:00 AM57 °FBroken clouds.12 mph82%30.33 "HgN/A
9:30 AM55 °FDrizzle. Broken clouds.7 mph88%30.36 "Hg4 mi
9:00 AM55 °FDrizzle. Broken clouds.17 mph88%30.33 "Hg4 mi
8:30 AM57 °FPartly cloudy.12 mph77%30.33 "HgN/A
8:00 AM57 °FScattered showers. Partly cloudy.12 mph77%30.30 "HgN/A
Weather by CustomWeather, © 2015

See weather overviewHow to use our weather pages